{"data":{"norad_id":61941,"intl_designator":"2024-209C","name":"STARLINK-11353 [DTC]","alt_names":[],"object_type":"PAYLOAD","status":"ACTIVE","operator":null,"country":"US","launch_date":"2024-11-14","launch_site_code":"AFWTR","launch_vehicle":null,"mission":null,"orbit_class":"UNKNOWN","rcs_meters":null,"size_class":null,"mass_kg":null,"dimensions":null,"purposes":["comms"],"wikipedia_slug":null,"has_3d_model":false,"image_url":null,"decayed_at":null,"tle_current":{"epoch":"2026-09-21T22:13:11.014752Z","epoch_age_seconds":62469,"freshness":"FRESH","line1":"1 61941U 24209C   26264.92582193  .00135212  00000+0  11026-2 0  9992","line2":"2 61941  53.1567 123.5507 0002261  22.0042 338.1072 15.69712750107504","mean_motion":15.6971275,"eccentricity":0.0002261,"inclination_deg":53.1567,"raan_deg":123.5507,"arg_perigee_deg":22.0042,"mean_anomaly_deg":338.1072,"bstar":0.0011026,"rev_number":10750,"period_min":91.736529501974,"perigee_km":358.19545176922,"apogee_km":361.2423101986,"semimajor_km":6737.8558809839,"source":"CELESTRAK","updated_at":"2026-09-22T09:00:49.453741Z"}}}